Zurück zum Katalog

CZ-6A DEB

AktivPO
NORAD 61322·DEBRIS·🇨🇳 China

Gestartet Aug 6, 2024 von Taiyuan Satellite Launch Center

Loading…

Nächste Überflüge (nächste 24 Stunden)

TLE

AktuellSource: Space-Track

Epoche: Sep 13, 2026, 10:13 UTC

1 61322U 24140UK  26256.42592344  .00005364  00000-0  85671-3 0  9997
2 61322  88.8775 247.4786 0106814 310.0335  49.1546 14.67952894108140

Verfolge CZ-6A DEB in Echtzeit mit AllMySat

Download on the App Store